Location: Monteux
(44.0348°N, 4.9972°E)
Time: 05:58:20
(UTC+00:00)

Cosmos 2341 Rocket - Pass Details

Date: 24 April 2021
Orbit: 969 x 1003 km, 82.9° (Epoch: 11 May)

Event Time Altitude Azimuth Distance (km) Brightness Sun altitude
Rises 22:34:34 0° 4° (N) 3,722 8.0 -31.0°
Reaches altitude 10° 22:38:02 10° 23° (NNE) 2,774 6.9 -31.2°
Maximum altitude 22:42:16 18° 65° (ENE) 2,230 5.9 -31.4°
Enters shadow 22:43:04 18° 74° (ENE) 2,251 5.9 -31.4°
